This is the latest recevied weather packets stored in our database for station/object KQ7A. If no packets are shown the sender has not sent any weather packets the latest 10 day(s).
| Time | Temp. | Humidity | Pressure | Rain* | Wind** | Luminosity | Snow |
|---|---|---|---|---|---|---|---|
| 1788295356 | 23.89° C | 16% | 1015 hPa | 0 mm | - | 756 W/m² | - |
| 1788295050 | 23.89° C | 16% | 1015.3 hPa | 0 mm | - | 737 W/m² | - |
| 1788294745 | 23.89° C | 16% | 1015 hPa | 0 mm | - | 624 W/m² | - |
| 1788294444 | 23.89° C | 15% | 1015.2 hPa | 0 mm | - | 745 W/m² | - |
| 1788294140 | 25° C | 16% | 1015 hPa | 0 mm | - | 622 W/m² | - |
| 1788293836 | 23.89° C | 16% | 1014.7 hPa | 0 mm | - | 712 W/m² | - |
| 1788293535 | 23.89° C | 16% | 1014.8 hPa | 0 mm | - | 660 W/m² | - |
| 1788293229 | 23.89° C | 17% | 1015.2 hPa | 0 mm | - | 667 W/m² | - |
| 1788292924 | 23.89° C | 20% | 1015.2 hPa | 0 mm | - | 674 W/m² | - |
| 1788292622 | 23.89° C | 19% | 1015.2 hPa | 0 mm | - | 770 W/m² | - |
| 1788292316 | 23.89° C | 22% | 1015.3 hPa | 0 mm | - | 695 W/m² | - |
| 1788292012 | 23.33° C | 19% | 1015.5 hPa | 0 mm | - | 748 W/m² | - |
| 1788291707 | 23.89° C | 18% | 1015.8 hPa | 0 mm | - | 747 W/m² | - |
| 1788291402 | 23.33° C | 18% | 1015.9 hPa | 0 mm | - | 738 W/m² | - |
| 1788291097 | 23.33° C | 19% | 1015.6 hPa | 0 mm | - | 725 W/m² | - |
| 1788290791 | 23.89° C | 20% | 1016 hPa | 0 mm | - | 751 W/m² | - |
| 1788290487 | 23.33° C | 20% | 1015.9 hPa | 0 mm | - | 764 W/m² | - |
| 1788290183 | 23.33° C | 21% | 1015.6 hPa | 0 mm | - | 658 W/m² | - |
| 1788289879 | 23.33° C | 21% | 1016 hPa | 0 mm | - | 638 W/m² | - |
| 1788289574 | 23.33° C | 21% | 1016 hPa | 0 mm | - | 706 W/m² | - |
| 1788289274 | 23.33° C | 24% | 1015.6 hPa | 0 mm | - | 659 W/m² | - |
| 1788288972 | 22.78° C | 24% | 1015.9 hPa | 0 mm | - | 588 W/m² | - |
| 1788288671 | 22.78° C | 24% | 1015.8 hPa | 0 mm | - | 735 W/m² | - |
| 1788288366 | 23.33° C | 22% | 1015.6 hPa | 0 mm | - | 750 W/m² | - |
| 1788288062 | 22.78° C | 22% | 1015.9 hPa | 0 mm | - | 806 W/m² | - |
* Rain latest hour (hover to see other rain measurements)
** Current wind speed in m/s (hover to see current wind gust speed)